sat.trackr.live / text

‹ back to catalog

STARLINK-34336

NORAD 64462 · 2025-130AA

PAYLOAD ACTIVE UNKNOWN

§ Identity

Operator
Country
US
Launch date
2025-06-18
Launch site
AFETR
Launch vehicle
Mass (kg)
RCS (m²)

Purposes: comms

External: N2YO · Heavens-Above · Gunter

§ Orbital elements

Epoch: 2026-05-25T03:12:16.908192Z

Period
94.01 min
Inclination
53.1595°
Eccentricity
0.0001250
Mean motion
15.31718895 rev/d
Perigee alt
469.8 km
Apogee alt
471.5 km
Semi-major
6,848.8 km
B*
6.2625e-4
RAAN
95.7594°
Arg perigee
78.4131°
Mean anomaly
281.7011°
Rev number
5,237

§ Raw data

STARLINK-343361 64462U 25130AA  26145.13352903  .00019129  00000+0  62625-3 0  99922 64462  53.1595  95.7594 0001250  78.4131 281.7011 15.31718895 52378

JSON: /api/v1/satellites/64462 · /tle

For live sub-satellite position, see the globe view (requires WebGL).

§ Visibility from observer

Set your observer location to see the next 7 days of passes ≥ 10°. The values pass through the URL so the page stays shareable.

No JS? Fill the form by hand. The geolocation button needs JavaScript.